This is the latest recevied weather packets stored in our database for station/object W6MAF. If no packets are shown the sender has not sent any weather packets the latest 10 day(s).
| Time | Temp. | Humidity | Pressure | Rain* | Wind** | Luminosity | Snow |
|---|---|---|---|---|---|---|---|
| 1777875103 | 8.33° C | 76% | - | 0 mm | 4.47 m/s, 158° | - | - |
| 1777874806 | 8.33° C | 75% | - | 0 mm | 3.13 m/s, 159° | - | - |
| 1777874508 | 8.33° C | 76% | - | 0 mm | 4.47 m/s, 156° | - | - |
| 1777874211 | 8.33° C | 76% | - | 0 mm | 9.39 m/s, 212° | - | - |
| 1777873615 | 8.33° C | 76% | - | 0 mm | 10.28 m/s, 187° | - | - |
| 1777873314 | 8.33° C | 76% | - | 0 mm | 10.73 m/s, 190° | - | - |
| 1777873017 | 8.33° C | 76% | - | 0 mm | 11.18 m/s, 190° | - | - |
| 1777872719 | 8.33° C | 75% | - | 0 mm | 11.18 m/s, 217° | - | - |
| 1777872123 | 8.89° C | 75% | - | 0 mm | 11.18 m/s, 221° | - | - |
| 1777871826 | 8.89° C | 76% | - | 0 mm | 12.52 m/s, 210° | - | - |
| 1777871525 | 8.89° C | 76% | - | 0 mm | 10.28 m/s, 207° | - | - |
| 1777871227 | 8.89° C | 76% | - | 0 mm | 12.52 m/s, 208° | - | - |
| 1777870929 | 8.89° C | 76% | - | 0 mm | 10.28 m/s, 207° | - | - |
| 1777870632 | 8.89° C | 76% | - | 0 mm | 10.73 m/s, 198° | - | - |
| 1777870334 | 8.89° C | 78% | - | 0 mm | 11.18 m/s, 228° | - | - |
| 1777870083 | 8.89° C | 78% | - | 0 mm | 12.52 m/s, 193° | - | - |
| 1777870037 | 8.89° C | 78% | - | 0 mm | 12.52 m/s, 193° | - | - |
| 1777869736 | 8.89° C | 77% | - | 0 mm | 10.73 m/s, 193° | - | - |
| 1777869438 | 8.89° C | 77% | - | 0 mm | 11.62 m/s, 217° | - | - |
| 1777868843 | 9.44° C | 76% | - | 0 mm | 11.62 m/s, 207° | - | - |
| 1777868545 | 9.44° C | 73% | - | 0 mm | 10.73 m/s, 208° | - | - |
| 1777868247 | 9.44° C | 72% | - | 0 mm | 8.94 m/s, 201° | - | - |
| 1777867946 | 9.44° C | 71% | - | 0 mm | 10.28 m/s, 203° | - | - |
| 1777867649 | 9.44° C | 70% | - | 0 mm | 8.05 m/s, 214° | - | - |
| 1777867351 | 10° C | 70% | - | 0 mm | 8.05 m/s, 214° | - | - |
* Rain latest hour (hover to see other rain measurements)
** Current wind speed in m/s (hover to see current wind gust speed)